Regional Weather Roundup
Issued by NWS Green Bay, WI

Home | Current Version | Previous Version | Graphics & Text | Print | Product List | Glossary Off
Versions: 1 2 3 4 5 6 7 8 9 10 11 12 13 14 15 16 17 18 19 20 21 22 23 24 25 26 27 28 29 30 31 32 33 34 35 36 37 38 39 40 41 42 43 44 45 46 47 48 49 50

531
ASUS43 KGRB 190200
RWRGRB

NORTH-CENTRAL AND NORTHEAST WISCONSIN REGIONAL WEATHER ROUNDUP
NATIONAL WEATHER SERVICE GREEN BAY WI
800 PM CST THU JAN 18 2018

WIZ005-009-010>012-018-019-190300-
NORTH CENTRAL WISCONSIN

CITY           SKY/WX    TMP DP  RH WIND       PRES   REMARKS
IRONWOOD       CLOUDY    28  24  85 S6        29.72F
MANITOWISH WTR NOT AVBL
ARBOR VITAE    NOT AVBL
EAGLE RIVER    FAIR      18  18  99 CALM      29.72S FOG
LAND O LAKES   NOT AVBL
RHINELANDER    FAIR      24  19  81 W6        29.74S
PHILLIPS       FAIR      23  19  84 CALM      29.73S
ANTIGO         NOT AVBL
TOMAHAWK       NOT AVBL
MERRILL        FAIR      25  19  78 CALM      29.76F
$$

WIZ013-073-190300-
NORTHEAST WISCONSIN

CITY           SKY/WX    TMP DP  RH WIND       PRES   REMARKS
IRON MOUNTAIN  FAIR      22  18  85 CALM      29.74R
MARINETTE      FAIR      27  20  75 SW7       29.80S
$$

WIZ017-030-035>037-045-190300-
CENTRAL WISCONSIN

CITY           SKY/WX    TMP DP  RH WIND       PRES   REMARKS
MEDFORD        NOT AVBL
WAUSAU         FAIR      30  20  66 SW9       29.75F
MOSINEE        MOCLDY    28  21  74 SW12      29.78F
MARSHFIELD     FAIR      29  21  72 SW10      29.78S
WISC RAPIDS    FAIR      27  18  69 SW8       29.82F
STEVENS POINT  NOT AVBL
WAUPACA        NOT AVBL
SHAWANO        FAIR      31  21  66 CALM      29.80S
CLINTONVILLE   NOT AVBL
WAUTOMA        FAIR      29  20  69 SW7         N/A
$$

WIZ038-039-048-051-190300-
FOX VALLEY

CITY           SKY/WX    TMP DP  RH WIND       PRES   REMARKS
NWS GREEN BAY  FAIR      27  18  69 SW7       29.82S
APPLETON       PTCLDY    27  18  69 SW10      29.81S
OSHKOSH        FAIR      27  19  72 SW12      29.84S
FOND DU LAC    FAIR      27  17  66 SW15G22   29.86S
$$

WIZ022-050-052-190300-
EAST CENTRAL WISCONSIN

CITY           SKY/WX    TMP DP  RH WIND       PRES   REMARKS
EPHRAIM        NOT AVBL
WASHINGTON ISL NOT AVBL
STURGEON BAY   FAIR      25  20  81 S8        29.81F
MANITOWOC      FAIR      30  20  66 SW12      29.83F
SHEBOYGAN      FAIR      28  19  69 SW14      29.85S
$$

LMZ563-521-522-541>543-190300-
LAKESHORE

STATION/POSITION TIME  TEMP    WIND        PRES    VSBY  WAVE
                       AIR SEA DIR/SP/G                  HT/PER
                 (UTC) (F)     (DEG/KT/KT) (MB)    (MI)  (FT/S)
SHEBOYGAN LKSHOR 0100   30     230/ 13/ 16 1011.7S
KEWAUNEE LKSHORE 0130   28     240/  4/  6 1009.8R
NORTHPORT PIER   0140   31     210/ 16/ 32 1008.8S
SISTER BAY LKSHO 0120   32     200/  8/  9   N/A
MENOMINEE LKSHOR 0124   29     200/ 10/ 14 1008.9
$$




USA.gov is the U.S. government's official web portal to all federal, state and local government web resources and services.